When you browse on this site, cookies collect data to enhance your experience and personalize the content and advertising you see.
Visit our Privacy Policy to learn more. By continuing to use the site, you agree to this use of cookies and data.
  • In Portugal
  • List of Countries
  • For 7 days
  • Water Temperature
  • Satellite Maps
  • Weather Map
  • Weather Widgets
  • user-avatar
    Login

    Hourly Weather Sevan

    Today, 16 July, Tuesday

    Time Temperature Precipitation Wind Pressure Humidity
    00:00 +19°C° 0 mm 2 mps 637 mmHg 50%
    01:00 +18°C° 0 mm 2 mps 637 mmHg 52%
    02:00 +18°C° 0 mm 2 mps 637 mmHg 54%
    03:00 +17°C° 0 mm 2 mps 637 mmHg 59%
    04:00 +18°C° 0 mm 2 mps 637 mmHg 59%
    05:00 +18°C° 0 mm 2 mps 638 mmHg 59%
    06:00 +18°C° 0 mm 2 mps 638 mmHg 60%
    07:00 +20°C° 0 mm 2 mps 638 mmHg 53%
    08:00 +23°C° 0 mm 1 mps 639 mmHg 46%
    09:00 +26°C° 0 mm 1 mps 639 mmHg 38%
    10:00 +27°C° 0 mm 2 mps 639 mmHg 35%
    11:00 +28°C° 0 mm 2 mps 640 mmHg 31%
    12:00 +29°C° 0 mm 3 mps 640 mmHg 27%
    13:00 +29°C° 0 mm 3 mps 640 mmHg 26%
    14:00 +30°C° 0 mm 2 mps 639 mmHg 26%
    15:00 +30°C° 0 mm 2 mps 639 mmHg 25%
    16:00 +30°C° 0 mm 2 mps 639 mmHg 30%
    17:00 +29°C° 0 mm 2 mps 639 mmHg 36%
    18:00 +28°C° 0 mm 2 mps 639 mmHg 41%
    19:00 +26°C° 0 mm 3 mps 639 mmHg 49%
    20:00 +23°C° 0 mm 4 mps 638 mmHg 57%
    21:00 +20°C° 0 mm 5 mps 638 mmHg 65%
    22:00 +20°C° 0 mm 4 mps 638 mmHg 66%
    23:00 +19°C° 0 mm 3 mps 638 mmHg 66%

    Tomorrow, 17 July, Wednesday

    Time Temperature Precipitation Wind Pressure Humidity
    00:00 +19°C° 0 mm 3 mps 638 mmHg 66%
    01:00 +18°C° 0 mm 3 mps 638 mmHg 66%
    02:00 +18°C° 0 mm 2 mps 638 mmHg 67%
    03:00 +17°C° 0 mm 2 mps 637 mmHg 67%
    04:00 +18°C° 0 mm 2 mps 638 mmHg 66%
    05:00 +19°C° 0 mm 2 mps 638 mmHg 65%
    06:00 +20°C° 0 mm 1 mps 638 mmHg 64%
    07:00 +22°C° 0 mm 1 mps 639 mmHg 59%
    08:00 +24°C° 0 mm 2 mps 639 mmHg 54%
    09:00 +26°C° 0 mm 2 mps 639 mmHg 49%
    10:00 +27°C° 0 mm 2 mps 639 mmHg 44%
    11:00 +29°C° 0 mm 3 mps 639 mmHg 40%
    12:00 +30°C° 0 mm 3 mps 640 mmHg 36%
    13:00 +30°C° 0.1 mm 3 mps 639 mmHg 33%
    14:00 +31°C° 0.1 mm 3 mps 639 mmHg 31%
    15:00 +33°C° 0.1 mm 3 mps 639 mmHg 28%
    16:00 +31°C° 0.1 mm 3 mps 639 mmHg 33%
    17:00 +30°C° 0.1 mm 2 mps 639 mmHg 38%
    18:00 +29°C° 0.1 mm 2 mps 638 mmHg 43%
    19:00 +27°C° 0 mm 3 mps 638 mmHg 49%
    20:00 +25°C° 0 mm 4 mps 638 mmHg 55%
    21:00 +22°C° 0 mm 4 mps 638 mmHg 61%
    22:00 +21°C° 0 mm 4 mps 638 mmHg 61%
    23:00 +21°C° 0 mm 3 mps 638 mmHg 61%

    Day after tomorrow, 18 July, Thursday

    Time Temperature Precipitation Wind Pressure Humidity
    00:00 +20°C° 0 mm 3 mps 638 mmHg 62%
    01:00 +20°C° 0 mm 3 mps 638 mmHg 63%
    02:00 +20°C° 0 mm 2 mps 638 mmHg 65%
    03:00 +19°C° 0 mm 2 mps 638 mmHg 66%
    04:00 +20°C° 0 mm 2 mps 638 mmHg 66%
    05:00 +20°C° 0 mm 2 mps 638 mmHg 66%
    06:00 +21°C° 0 mm 2 mps 638 mmHg 65%
    07:00 +24°C° 0 mm 2 mps 639 mmHg 59%
    08:00 +26°C° 0 mm 2 mps 639 mmHg 52%
    09:00 +28°C° 0 mm 2 mps 640 mmHg 46%
    10:00 +29°C° 0 mm 2 mps 640 mmHg 40%
    11:00 +30°C° 0 mm 3 mps 640 mmHg 35%
    12:00 +33°C° 0 mm 3 mps 640 mmHg 29%
    13:00 +33°C° 0 mm 3 mps 640 mmHg 28%
    14:00 +34°C° 0 mm 3 mps 640 mmHg 26%
    15:00 +34°C° 0 mm 3 mps 640 mmHg 25%
    16:00 +33°C° 0.1 mm 3 mps 640 mmHg 30%
    17:00 +32°C° 0.1 mm 2 mps 640 mmHg 34%
    18:00 +31°C° 0.1 mm 2 mps 639 mmHg 39%
    19:00 +28°C° 0 mm 2 mps 639 mmHg 46%
    20:00 +26°C° 0 mm 3 mps 639 mmHg 53%
    21:00 +22°C° 0 mm 3 mps 639 mmHg 60%
    22:00 +22°C° 0 mm 3 mps 639 mmHg 59%
    23:00 +21°C° 0 mm 3 mps 639 mmHg 58%

    19 July, Friday

    Time Temperature Precipitation Wind Pressure Humidity
    00:00 +20°C° 0 mm 3 mps 639 mmHg 57%
    01:00 +20°C° 0 mm 2 mps 639 mmHg 58%
    02:00 +20°C° 0 mm 2 mps 639 mmHg 59%
    03:00 +19°C° 0 mm 2 mps 639 mmHg 60%
    04:00 +20°C° 0 mm 2 mps 640 mmHg 61%
    05:00 +20°C° 0 mm 2 mps 640 mmHg 62%
    06:00 +21°C° 0 mm 1 mps 640 mmHg 62%
    07:00 +23°C° 0 mm 2 mps 641 mmHg 57%
    08:00 +25°C° 0 mm 2 mps 641 mmHg 52%
    09:00 +27°C° 0 mm 2 mps 642 mmHg 47%
    10:00 +29°C° 0 mm 2 mps 642 mmHg 42%
    11:00 +30°C° 0 mm 2 mps 642 mmHg 36%
    12:00 +31°C° 0 mm 3 mps 642 mmHg 31%
    13:00 +32°C° 0.1 mm 2 mps 642 mmHg 31%
    14:00 +32°C° 0.1 mm 2 mps 642 mmHg 30%
    15:00 +34°C° 0.1 mm 2 mps 642 mmHg 30%
    16:00 +31°C° 0.1 mm 3 mps 642 mmHg 37%
    17:00 +30°C° 0.1 mm 3 mps 641 mmHg 45%
    18:00 +29°C° 0.1 mm 4 mps 641 mmHg 52%
    19:00 +27°C° 0 mm 5 mps 641 mmHg 58%
    20:00 +25°C° 0 mm 5 mps 641 mmHg 64%
    21:00 +22°C° 0 mm 5 mps 641 mmHg 69%
    22:00 +21°C° 0 mm 5 mps 642 mmHg 71%
    23:00 +21°C° 0 mm 4 mps 642 mmHg 73%

    20 July, Saturday

    Time Temperature Precipitation Wind Pressure Humidity
    00:00 +20°C° 0 mm 4 mps 642 mmHg 74%
    01:00 +20°C° 0 mm 3 mps 642 mmHg 75%
    02:00 +20°C° 0 mm 3 mps 642 mmHg 76%
    03:00 +19°C° 0 mm 3 mps 642 mmHg 77%
    04:00 +20°C° 0 mm 3 mps 642 mmHg 75%
    05:00 +20°C° 0 mm 2 mps 643 mmHg 74%
    06:00 +20°C° 0 mm 2 mps 643 mmHg 73%
    07:00 +23°C° 0 mm 2 mps 643 mmHg 67%
    08:00 +25°C° 0 mm 2 mps 644 mmHg 61%
    09:00 +27°C° 0 mm 2 mps 645 mmHg 54%
    10:00 +28°C° 0 mm 2 mps 645 mmHg 50%
    11:00 +30°C° 0 mm 2 mps 645 mmHg 45%
    12:00 +31°C° 0 mm 3 mps 645 mmHg 41%
    13:00 +33°C° 0 mm 3 mps 645 mmHg 39%
    14:00 +33°C° 0 mm 3 mps 645 mmHg 38%
    15:00 +34°C° 0 mm 3 mps 645 mmHg 36%
    16:00 +33°C° 0 mm 4 mps 645 mmHg 43%
    17:00 +30°C° 0 mm 4 mps 644 mmHg 50%
    18:00 +29°C° 0 mm 5 mps 644 mmHg 57%
    19:00 +27°C° 0 mm 5 mps 644 mmHg 61%
    20:00 +26°C° 0 mm 5 mps 644 mmHg 66%
    21:00 +23°C° 0 mm 5 mps 644 mmHg 71%
    22:00 +22°C° 0 mm 5 mps 644 mmHg 69%
    23:00 +22°C° 0 mm 4 mps 644 mmHg 68%

    21 July, Sunday

    Time Temperature Precipitation Wind Pressure Humidity
    00:00 +21°C° 0 mm 3 mps 644 mmHg 67%
    01:00 +21°C° 0 mm 3 mps 644 mmHg 67%
    02:00 +20°C° 0 mm 3 mps 644 mmHg 67%
    03:00 +20°C° 0 mm 2 mps 644 mmHg 68%
    04:00 +20°C° 0 mm 2 mps 644 mmHg 66%
    05:00 +21°C° 0 mm 2 mps 644 mmHg 65%
    06:00 +21°C° 0 mm 2 mps 644 mmHg 64%
    07:00 +24°C° 0 mm 2 mps 645 mmHg 57%
    08:00 +27°C° 0 mm 2 mps 645 mmHg 51%
    09:00 +29°C° 0 mm 2 mps 645 mmHg 45%
    10:00 +30°C° 0 mm 2 mps 646 mmHg 41%
    11:00 +32°C° 0 mm 2 mps 646 mmHg 37%
    12:00 +34°C° 0 mm 3 mps 646 mmHg 34%
    13:00 +35°C° 0 mm 3 mps 646 mmHg 33%
    14:00 +36°C° 0 mm 3 mps 645 mmHg 32%
    15:00 +36°C° 0 mm 3 mps 645 mmHg 32%
    16:00 +35°C° 0 mm 3 mps 645 mmHg 38%
    17:00 +33°C° 0 mm 4 mps 644 mmHg 45%
    18:00 +32°C° 0 mm 4 mps 644 mmHg 52%
    19:00 +29°C° 0 mm 4 mps 644 mmHg 54%
    20:00 +27°C° 0 mm 4 mps 643 mmHg 56%
    21:00 +25°C° 0 mm 4 mps 643 mmHg 59%
    22:00 +25°C° 0 mm 4 mps 643 mmHg 58%
    23:00 +23°C° 0 mm 4 mps 643 mmHg 57%
    Show more